星链-4544 (STARLINK-4544 )

导读

STARLINK-4544是美国太空探索技术公司(SpaceX)星链卫星互联网项目的成员,于2022年8月10日发射升空。它是星链低轨卫星星座部署的一环,运行在近地轨道,主要任务是为全球范围用户提供高速卫星互联网接入服务,推进星链星座全球组网进程。

Basic Information
目录编号:
53394
目录名称:
STARLINK-4544
国际标识:
2022-097G
轨道中心:
EARTH
卫星名称:
星链-4544
卫星全名:
星链-4544 (STARLINK-4544 )
卫星状态:
在轨 (已飞行1486 天)
发射日期:
2022-08-10 UTC
国别 :
美国 (US)
星等 :
--
Orbit Information
数据来源 国际轨道数据
星历时间: 2026-09-04T02:51:33+0800
11小时前
查看轨道信息
半长轴: 6848.88km
偏心率: 0.0001219
轨道倾角: 53.162°
近地点辐角 79.030°
升交点赤经 25.391°
平近点角 281.084°
近地点: 469.908km
远地点: 471.578km
周期: 94.013分钟
每日圈数: 15.31699
Detailed Information
固有亮度:
5
最大亮度:
2.5
卫星平台:
Starlink v1.5
覆盖范围:
全球
运营商:
太空探索技术公司
运营商所在国:
美国
制造商(研发单位):
太空探索技术公司
制造商所在国:
美国
使用方式:
暂无
Satellite Introduction
星链(Starlink)计划是由太空探索技术公司(SpaceX)提出的一个巨型低轨卫星互联网星座项目,计划在2019年至2024年间在太空搭建由约1.2万颗卫星组成的“星链”网络,其中1584颗将部署在地球上空550千米处的近地轨道,并从2020年开始工作。该卫星仍在工作。
2D Orbit Map
3D Orbit Map
Orbit Altitude Analysis Chart
Orbit Inclination Analysis Chart
Orbit Comprehensive Analysis Chart
View Comprehensive Chart
Conjunction Data List
Event ID Objects TCA Miss Dist (km) Collision Risk Probability Collision Risk Index (CRI) Action
CDM_260904-111205-339406-393321
2026-09-04T
11:12:37+0000
2.453 km
极远距离
1.701786E-6 低风险 0.4
CDM_260905-031505-339406-860721
2026-09-05T
03:15:58+0000
2.873 km
极远距离
1.094484E-6 低风险 0.36
CDM_260904-202205-339406-757821
2026-09-04T
20:22:26+0000
2.984 km
极远距离
1.077707E-6 低风险 0.36
CDM_260828-120105-339406-822221
2026-08-28T
12:01:17+0000
2.902 km
极远距离
1.043029E-6 低风险 0.35
CDM_260827-183605-339406-913221
2026-08-27T
18:36:50+0000
2.913 km
极远距离
8.412344E-7 极低风险 0.33